CST,Max TemperatureF,Mean TemperatureF,Min TemperatureF,Max Dew PointF,MeanDew PointF,Min DewpointF,Max Humidity, Mean Humidity, Min Humidity, Max Sea Level PressureIn, Mean Sea Level PressureIn, Min Sea Level PressureIn, Max VisibilityMiles, Mean VisibilityMiles, Min VisibilityMiles, Max Wind SpeedMPH, Mean Wind SpeedMPH, Max Gust SpeedMPH,PrecipitationIn, CloudCover, Events, WindDirDegrees
2013-2-1,1,-5,-11,-4,-12,-17,78,65,51,30.08,30.01,29.93,10,10,10,13,8,16,0.00,3,,268
2013-2-2,10,-2,-14,0,-7,-18,85,70,52,30.02,29.95,29.84,10,10,7,9,2,,0.00,4,Snow,302
2013-2-3,8,0,-9,0,-5,-17,85,72,57,29.89,29.83,29.77,10,8,2,17,7,24,0.00,5,Snow,284
2013-2-4,12,-5,-22,-2,-12,-27,85,66,32,29.91,29.85,29.74,10,10,5,9,1,,0.00,1,,307
2013-2-5,19,8,-2,12,5,-6,92,79,61,29.98,29.74,29.58,10,6,1,13,5,18,0.00,6,Snow,277
2013-2-6,21,8,-5,19,7,-11,100,83,63,30.08,30.03,29.98,10,7,0,7,2,,0.00,7,Snow,162
2013-2-7,23,20,17,23,19,12,100,96,79,30.18,30.07,30.03,10,6,2,15,7,23,0.00,8,Snow,57
2013-2-8,24,12,1,10,6,-4,92,77,54,30.31,30.25,30.18,10,9,0,13,5,,0.05,1,Fog-Snow,15
2013-2-9,28,13,-2,21,10,-8,100,82,55,30.26,30.11,29.98,10,9,2,14,3,20,0.00,4,Snow,189
2013-2-10,32,26,21,32,27,21,100,100,100,29.98,29.65,29.25,10,3,0,21,6,28,0.00,8,Snow,123
2013-2-11,32,26,19,32,25,16,100,92,80,29.83,29.48,29.20,10,5,1,17,7,23,0.00,8,Snow,290
2013-2-12,23,18,12,19,15,12,100,85,74,29.88,29.81,29.69,10,8,2,14,7,18,0.00,6,Snow,250
2013-2-13,32,23,14,30,23,14,100,94,75,29.68,29.60,29.57,10,8,3,8,3,,0.20,5,Snow,238
2013-2-14,28,20,12,28,20,9,100,85,68,29.95,29.73,29.57,10,7,1,15,6,21,0.00,8,Snow,353
2013-2-15,17,6,-4,9,3,-8,92,76,57,30.10,30.03,29.95,10,9,2,15,7,23,0.00,7,Snow,296
2013-2-16,12,0,-13,3,-5,-18,85,75,53,30.08,30.05,30.03,10,9,2,8,3,,0.00,5,Snow,327
2013-2-17,23,0,-22,7,-7,-27,85,62,39,30.07,29.97,29.82,10,10,4,12,3,18,0.00,3,,173
2013-2-18,33,25,17,32,21,9,100,79,63,29.80,29.54,29.41,10,8,1,14,7,21,0.03,6,Snow,196
2013-2-19,26,14,3,27,5,-2,100,78,62,30.04,29.73,29.41,10,4,1,26,16,33,0.00,7,Snow,320
2013-2-20,17,9,1,7,3,-4,85,74,58,30.36,30.24,30.06,10,6,1,21,12,28,0.00,6,Snow,350
2013-2-21,26,10,-7,19,8,-13,100,79,59,30.40,30.29,30.12,10,9,1,15,5,21,0.01,4,Snow,48
2013-2-22,24,20,14,21,19,14,100,94,80,30.12,29.87,29.73,10,4,0,15,9,21,0.00,8,Snow,84
2013-2-23,30,20,10,23,19,9,100,89,69,29.82,29.73,29.69,10,7,1,8,2,,0.07,8,Snow,313
2013-2-24,32,23,14,23,20,14,100,82,55,30.04,29.98,29.83,10,10,1,8,2,,0.05,8,Snow,302
2013-2-25,32,28,23,28,23,21,100,79,64,30.07,30.04,30.01,10,10,10,8,1,,0.00,8,,215
2013-2-26,33,22,10,30,21,10,100,83,60,30.04,29.94,29.82,10,8,0,18,5,24,0.00,5,Fog,63
2013-2-27,30,28,26,25,23,23,86,79,75,29.86,29.78,29.74,10,10,4,23,15,32,0.00,8,Snow,25
2013-2-28,28,24,19,27,18,12,100,77,64,30.16,30.02,29.86,10,8,2,21,14,31,0.00,8,Snow,23